Location: LDNL
(36.4545°S, 141.6685°E)
Time: 12:49:20
(UTC+10:00)

Tiros 1 despin weight - Pass Details

Date: 15 August 2022
Orbit: 590 x 639 km, 48.2° (Epoch: 23 September)

Event Time Altitude Azimuth Distance (km) Brightness Sun altitude
Rises 00:13:17 0° 283° (WNW) 2,893 - -67.1°
Reaches altitude 10° 00:15:42 10° 274° (W) 2,000 - -67.2°
Maximum altitude 00:20:00 38° 205° (SSW) 968 - -67.4°
Drops below altitude 10° 00:24:25 10° 136° (SE) 2,038 - -67.6°
Sets 00:26:54 0° 128° (SE) 2,956 - -67.6°
